Regional Weather Roundup
Issued by NWS Cleveland, OH

Home | Current Version | Previous Version | Graphics & Text | Print | Product List | Glossary On
Versions: 1 2 3 4 5 6 7 8 9 10 11 12 13 14 15 16 17 18 19 20 21 22 23 24 25 26 27 28 29 30 31 32 33 34 35 36 37 38 39 40 41 42 43 44 45 46 47 48 49 50
000
ASUS41 KCLE 211102
RWRCLE
OHIO REGIONAL WEATHER ROUNDUP
NATIONAL WEATHER SERVICE CLEVELAND, OH
600 AM EST SAT JAN 21 2017

NOTE: "FAIR" INDICATES FEW OR NO CLOUDS BELOW 12,000 FEET WITH NO
SIGNIFICANT WEATHER AND/OR OBSTRUCTIONS TO VISIBILITY.

OHZ001>008-015>018-024>027-034-035-043-044-211200-
   NORTHWEST OHIO

CITY           SKY/WX    TMP DP  RH WIND       PRES   REMARKS
DEFIANCE       CLOUDY    49  46  90 S5        29.67F
FINDLAY        PTCLDY    49  44  83 S8        29.68F
TOLEDO EXPRESS MOCLDY    46  46 100 S5        29.69F
TOLEDO EXEC    PTCLDY    48  46  93 S7        29.70F
LIMA           PTCLDY    48  46  93 S9        29.69F
$$

OHZ009>014-019>023-028>033-038-089-211200-
   NORTHEAST OHIO

CITY           SKY/WX    TMP DP  RH WIND       PRES   REMARKS
CLE-HOPKINS    PTCLDY    49  45  86 S7        29.77S
CLE-LAKEFRONT  CLOUDY    50  47  89 SE13      29.74S
CUY CO. ARPT   NOT AVBL
LORAIN-ELYRIA  CLOUDY    47  43  86 S10       29.75S
ASHTABULA      PTCLDY    44  44 100 S5        29.79S FOG
AKRON-CANTON   FOG       45  42  89 SE6       29.77F VSB 1/2
WOOSTER        FOG       38  38 100 SE3       29.77S VSB 1/2
MANSFIELD      MOCLDY    49  47  93 SE10      29.74F
YOUNGSTOWN     MOCLDY    47  46  97 SE7       29.80R FOG
$$

OHZ042-051>053-060>062-070>072-077>081-211200-
  SOUTHWEST OHIO

CITY           SKY/WX    TMP DP  RH WIND       PRES   REMARKS
CINC-COVINGTON CLEAR     50  47  89 S8        29.71S
CINC-LUNKEN    FOG       40  40 100 CALM      29.73S VSB 1/4
HAMILTON       CLEAR     44  43  96 CALM      29.73R
DAYTON         MOCLDY    47  45  93 S8        29.71F
WRIGHT-PAT AFB CLEAR     46  46 100 CALM      29.71S
DAYTON GENERAL NOT AVBL
WILMINGTON     CLEAR     48  45  89 S5        29.72S
$$

OHZ036-037-039>041-045>050-054>059-063>069-073>076-082>088-211200-
  CENTRAL AND SOUTHEAST OHIO

CITY           SKY/WX    TMP DP  RH WIND       PRES   REMARKS
COLUMBUS       PTCLDY    49  45  86 E6        29.73F
OSU AIRPORT    PTCLDY    46  46 100 CALM      29.73F FOG
BOLTON FIELD   NOT AVBL
RICKENBACK AFB   N/A     41  42 100 CALM      29.73F FOG
NEWARK         FOG       38  36  92 CALM      29.75F VSB 1/4
MARION         PTCLDY    46  44  93 S7        29.73F
LANCASTER      CLEAR     46  43  89 SE8       29.75F
ZANESVILLE     CLEAR     44  43  96 SE5       29.76F FOG
NEW PHILLY     NOT AVBL
$$




USA.gov is the U.S. government's official web portal to all federal, state and local government web resources and services.